| time (UTC) | temp F | wind direction | speed MPH | gust MPH | rain 1hr in | rain 24hr in | rain mn in | humidity % | barometer mb |
| 20260904143833 | 50 | 245 | 0.0 | 0.0 | 0.00 | 0.23 | 0.23 | 94 | 1021.2 |
| 20260904143330 | 50 | 245 | 0.0 | 0.0 | 0.00 | 0.23 | 0.23 | 94 | 1021.0 |
| 20260904142826 | 50 | 274 | 0.0 | 0.0 | 0.00 | 0.23 | 0.23 | 93 | 1020.7 |
| 20260904142322 | 50 | 235 | 0.0 | 0.0 | 0.00 | 0.23 | 0.23 | 93 | 1020.5 |
| 20260904141816 | 50 | 227 | 0.0 | 0.0 | 0.00 | 0.23 | 0.23 | 93 | 1020.6 |
| 20260904141311 | 50 | 253 | 0.0 | 0.0 | 0.00 | 0.23 | 0.23 | 93 | 1020.6 |
| 20260904140807 | 50 | 234 | 0.0 | 0.0 | 0.00 | 0.23 | 0.23 | 93 | 1020.7 |
| 20260904140302 | 49 | 244 | 0.0 | 0.0 | 0.00 | 0.23 | 0.23 | 93 | 1020.6 |
| 20260904135801 | 49 | 223 | 0.0 | 0.0 | 0.00 | 0.23 | 0.23 | 93 | 1020.4 |
| 20260904135256 | 49 | 202 | 0.0 | 0.0 | 0.00 | 0.23 | 0.23 | 93 | 1020.5 |
| 20260904134753 | 49 | 238 | 0.0 | 0.0 | 0.00 | 0.23 | 0.23 | 93 | 1020.6 |
| 20260904134252 | 49 | 257 | 0.0 | 0.0 | 0.00 | 0.23 | 0.23 | 92 | 1020.4 |
| 20260904133747 | 49 | 248 | 0.0 | 0.0 | 0.00 | 0.23 | 0.23 | 92 | 1020.2 |
| 20260904133243 | 49 | 234 | 0.0 | 0.0 | 0.00 | 0.23 | 0.23 | 92 | 1020.4 |
| 20260904132742 | 49 | 235 | 0.0 | 0.0 | 0.00 | 0.23 | 0.23 | 92 | 1020.0 |
| 20260904132238 | 49 | 242 | 0.0 | 0.0 | 0.12 | 0.23 | 0.23 | 92 | 1020.2 |
| 20260904131737 | 49 | 238 | 0.0 | 0.0 | 0.17 | 0.23 | 0.23 | 91 | 1020.2 |
| 20260904131233 | 49 | 263 | 0.0 | 0.0 | 0.26 | 0.22 | 0.22 | 91 | 1020.4 |
| 20260904130732 | 50 | 258 | 0.0 | 0.0 | 0.38 | 0.20 | 0.20 | 91 | 1020.1 |
| 20260904130232 | 50 | 273 | 1.0 | 1.0 | 0.31 | 0.17 | 0.17 | 90 | 1020.1 |
| 20260904125728 | 50 | 257 | 0.0 | 1.0 | 0.24 | 0.14 | 0.14 | 89 | 1020.1 |
| 20260904125224 | 50 | 244 | 0.0 | 0.0 | 0.31 | 0.13 | 0.13 | 89 | 1019.9 |
| 20260904124724 | 50 | 253 | 0.0 | 0.0 | 0.24 | 0.10 | 0.10 | 88 | 1019.9 |
| 20260904124220 | 51 | 253 | 0.0 | 0.0 | 0.24 | 0.08 | 0.08 | 87 | 1020.1 |
| 20260904123714 | 51 | 257 | 0.0 | 0.0 | 0.24 | 0.06 | 0.06 | 85 | 1019.8 |
| 20260904123210 | 52 | 273 | 0.0 | 0.0 | 0.19 | 0.04 | 0.04 | 84 | 1020.0 |
| 20260904122710 | 52 | 285 | 1.0 | 2.0 | 0.07 | 0.02 | 0.02 | 83 | 1019.5 |
| 20260904122205 | 52 | 269 | 0.0 | 1.0 | 0.00 | 0.01 | 0.01 | 83 | 1019.5 |
| 20260904121700 | 52 | 329 | 4.0 | 5.0 | 0.00 | 0.01 | 0.01 | 82 | 1019.2 |
| 20260904121155 | 52 | 265 | 2.0 | 3.0 | 0.00 | 0.01 | 0.01 | 83 | 1019.6 |
| 20260904120652 | 52 | 250 | 0.0 | 1.0 | 0.00 | 0.01 | 0.01 | 84 | 1019.4 |
| 20260904120148 | 52 | 309 | 2.0 | 2.0 | 0.00 | 0.01 | 0.01 | 84 | 1019.0 |
| 20260904115643 | 52 | 288 | 1.0 | 1.0 | 0.00 | 0.01 | 0.01 | 87 | 1019.0 |
| 20260904115138 | 52 | 265 | 1.0 | 1.0 | 0.00 | 0.01 | 0.01 | 87 | 1018.9 |
| 20260904114637 | 52 | 306 | 1.0 | 2.0 | 0.00 | 0.01 | 0.01 | 87 | 1018.8 |
| 20260904114137 | 52 | 257 | 0.0 | 0.0 | 0.00 | 0.01 | 0.01 | 87 | 1018.7 |
| 20260904113632 | 52 | 261 | 0.0 | 1.0 | 0.00 | 0.01 | 0.01 | 86 | 1018.4 |
| 20260904113131 | 53 | 286 | 2.0 | 2.0 | 0.00 | 0.01 | 0.01 | 85 | 1018.6 |
| 20260904112627 | 52 | 317 | 3.0 | 3.0 | 0.00 | 0.01 | 0.01 | 85 | 1018.1 |
| 20260904112123 | 52 | 343 | 6.0 | 7.0 | 0.00 | 0.01 | 0.01 | 87 | 1017.8 |
| 20260904111618 | 52 | 309 | 0.0 | 1.0 | 0.00 | 0.01 | 0.01 | 89 | 1017.8 |
| 20260904111113 | 52 | 224 | 0.0 | 0.0 | 0.00 | 0.01 | 0.01 | 89 | 1017.7 |
| 20260904110608 | 51 | 193 | 1.0 | 1.0 | 0.00 | 0.01 | 0.01 | 89 | 1017.6 |
| 20260904105603 | 52 | 193 | 1.0 | 1.0 | 0.00 | 0.01 | 0.01 | 88 | 1017.6 |
| 20260904105058 | 52 | 233 | 1.0 | 2.0 | 0.00 | 0.01 | 0.01 | 88 | 1017.5 |
| 20260904104553 | 52 | 214 | 2.0 | 2.0 | 0.00 | 0.01 | 0.01 | 89 | 1017.4 |
| 20260904104049 | 52 | 250 | 2.0 | 3.0 | 0.00 | 0.01 | 0.01 | 89 | 1017.4 |
| 20260904103544 | 51 | 270 | 3.0 | 3.0 | 0.00 | 0.01 | 0.01 | 91 | 1017.5 |
| 20260904103040 | 51 | 228 | 1.0 | 1.0 | 0.00 | 0.01 | 0.01 | 91 | 1017.2 |
| 20260904102536 | 51 | 283 | 3.0 | 5.0 | 0.00 | 0.01 | 0.01 | 91 | 1016.9 |
| 20260904102031 | 51 | 293 | 1.0 | 2.0 | 0.00 | 0.01 | 0.01 | 91 | 1016.6 |
| 20260904101528 | 51 | 257 | 2.0 | 2.0 | 0.00 | 0.01 | 0.01 | 91 | 1016.3 |
| 20260904101023 | 51 | 223 | 0.0 | 0.0 | 0.00 | 0.01 | 0.01 | 90 | 1016.4 |
| 20260904100519 | 51 | 189 | 1.0 | 1.0 | 0.00 | 0.01 | 0.01 | 90 | 1016.4 |
| 20260904100014 | 51 | 179 | 0.0 | 0.0 | 0.05 | 0.01 | 0.01 | 90 | 1016.3 |
| 20260904095508 | 51 | 209 | 0.0 | 0.0 | 0.05 | 0.01 | 0.01 | 90 | 1016.5 |
| 20260904095003 | 50 | 293 | 2.0 | 2.0 | 0.00 | 0.00 | 0.00 | 91 | 1016.2 |
| 20260904094458 | 50 | 188 | 4.0 | 5.0 | 0.00 | 0.00 | 0.00 | 91 | 1016.6 |
| 20260904093954 | 50 | 173 | 6.0 | 8.0 | 0.00 | 0.00 | 0.00 | 92 | 1016.3 |
| 20260904093450 | 49 | 172 | 3.0 | 3.0 | 0.00 | 0.00 | 0.00 | 92 | 1015.4 |
| 20260904092944 | 49 | 292 | 0.0 | 1.0 | 0.00 | 0.00 | 0.00 | 92 | 1015.1 |
| 20260904092441 | 50 | 246 | 1.0 | 1.0 | 0.00 | 0.00 | 0.00 | 93 | 1014.8 |
| 20260904091936 | 49 | 194 | 1.0 | 1.0 | 0.00 | 0.00 | 0.00 | 93 | 1014.9 |
| 20260904091433 | 49 | 274 | 0.0 | 0.0 | 0.00 | 0.00 | 0.00 | 93 | 1014.9 |
| 20260904090926 | 49 | 251 | 0.0 | 0.0 | 0.00 | 0.00 | 0.00 | 92 | 1015.2 |
| 20260904090423 | 49 | 224 | 0.0 | 0.0 | 0.00 | 0.00 | 0.00 | 92 | 1015.1 |
| 20260904085917 | 49 | 202 | 0.0 | 1.0 | 0.00 | 0.00 | 0.00 | 92 | 1014.9 |
| 20260904085413 | 49 | 330 | 1.0 | 1.0 | 0.00 | 0.00 | 0.00 | 92 | 1014.3 |
| 20260904084907 | 49 | 326 | 2.0 | 2.0 | 0.00 | 0.00 | 0.00 | 92 | 1014.4 |
| 20260904084404 | 49 | 345 | 3.0 | 3.0 | 0.00 | 0.00 | 0.00 | 92 | 1014.5 |
| 20260904083859 | 49 | 300 | 1.0 | 1.0 | 0.00 | 0.00 | 0.00 | 92 | 1014.9 |
| 20260904083355 | 49 | 285 | 0.0 | 1.0 | 0.00 | 0.00 | 0.00 | 92 | 1014.6 |
| 20260904082851 | 49 | 269 | 0.0 | 0.0 | 0.00 | 0.00 | 0.00 | 92 | 1014.7 |
| 20260904082345 | 49 | 236 | 0.0 | 0.0 | 0.00 | 0.00 | 0.00 | 92 | 1014.7 |
| 20260904081840 | 49 | 236 | 0.0 | 0.0 | 0.00 | 0.00 | 0.00 | 92 | 1014.7 |
| 20260904081336 | 49 | 229 | 0.0 | 0.0 | 0.00 | 0.00 | 0.00 | 92 | 1014.7 |
| 20260904080832 | 48 | 274 | 0.0 | 0.0 | 0.00 | 0.00 | 0.00 | 92 | 1014.6 |
| 20260904080327 | 48 | 230 | 0.0 | 0.0 | 0.00 | 0.00 | 0.00 | 91 | 1014.7 |
| 20260904075824 | 49 | 230 | 0.0 | 0.0 | 0.00 | 0.00 | 0.00 | 91 | 1014.9 |
| 20260904075324 | 49 | 201 | 0.0 | 0.0 | 0.00 | 0.00 | 0.00 | 91 | 1014.8 |
| 20260904074822 | 49 | 239 | 0.0 | 0.0 | 0.00 | 0.00 | 0.00 | 91 | 1014.8 |
| 20260904074317 | 49 | 239 | 0.0 | 0.0 | 0.00 | 0.00 | 0.00 | 91 | 1014.9 |
| 20260904073813 | 49 | 243 | 0.0 | 0.0 | 0.00 | 0.00 | 0.00 | 91 | 1015.1 |
| 20260904073309 | 49 | 253 | 0.0 | 0.0 | 0.00 | 0.00 | 0.00 | 91 | 1015.3 |
| 20260904072805 | 49 | 251 | 0.0 | 0.0 | 0.00 | 0.00 | 0.00 | 91 | 1014.9 |
| 20260904072306 | 49 | 249 | 0.0 | 0.0 | 0.00 | 0.00 | 0.00 | 91 | 1015.1 |
| 20260904071759 | 49 | 244 | 0.0 | 0.0 | 0.00 | 0.00 | 0.00 | 90 | 1015.1 |
| 20260904071255 | 49 | 244 | 0.0 | 0.0 | 0.00 | 0.00 | 0.00 | 90 | 1015.3 |
| 20260904070749 | 50 | 195 | 0.0 | 0.0 | 0.00 | 0.00 | 0.00 | 90 | 1015.1 |
| 20260904070248 | 49 | 233 | 0.0 | 0.0 | 0.00 | 0.00 | 0.00 | 90 | 1015.2 |
| 20260904065743 | 49 | 233 | 0.0 | 0.0 | 0.00 | 0.00 | 0.00 | 89 | 1014.9 |
| 20260904065240 | 50 | 232 | 0.0 | 0.0 | 0.00 | 0.00 | 0.00 | 89 | 1015.3 |
| 20260904064739 | 50 | 241 | 0.0 | 0.0 | 0.00 | 0.00 | 0.00 | 89 | 1015.2 |
| 20260904064235 | 50 | 234 | 0.0 | 0.0 | 0.00 | 0.00 | 0.00 | 88 | 1015.1 |
| 20260904063731 | 51 | 97 | 1.0 | 1.0 | 0.00 | 0.00 | 0.00 | 88 | 1014.9 |
| 20260904063227 | 51 | 208 | 0.0 | 1.0 | 0.00 | 0.00 | 0.00 | 87 | 1015.2 |
| 20260904062722 | 52 | 257 | 0.0 | 0.0 | 0.00 | 0.00 | 0.00 | 86 | 1015.1 |
| 20260904062218 | 52 | 201 | 1.0 | 2.0 | 0.00 | 0.00 | 0.00 | 86 | 1014.9 |
| 20260904061713 | 52 | 214 | 0.0 | 0.0 | 0.00 | 0.00 | 0.00 | 86 | 1015.2 |
| 20260904061210 | 52 | 214 | 0.0 | 0.0 | 0.00 | 0.00 | 0.00 | 85 | 1015.2 |
| 20260904060706 | 52 | 234 | 0.0 | 0.0 | 0.00 | 0.00 | 0.00 | 85 | 1015.1 |
| 20260904060201 | 52 | 216 | 0.0 | 0.0 | 0.00 | 0.00 | 0.00 | 86 | 1014.9 |
| 20260904055656 | 52 | 224 | 0.0 | 0.0 | 0.00 | 0.00 | 0.00 | 86 | 1015.1 |
| 20260904055152 | 52 | 207 | 1.0 | 1.0 | 0.00 | 0.00 | 0.00 | 85 | 1015.1 |
| 20260904054647 | 52 | 198 | 1.0 | 1.0 | 0.00 | 0.00 | 0.00 | 84 | 1014.9 |
| 20260904054144 | 52 | 214 | 0.0 | 0.0 | 0.00 | 0.00 | 0.00 | 85 | 1015.2 |
| 20260904053644 | 52 | 179 | 1.0 | 2.0 | 0.00 | 0.00 | 0.00 | 85 | 1015.3 |
| 20260904053138 | 53 | 179 | 3.0 | 3.0 | 0.00 | 0.00 | 0.00 | 83 | 1015.2 |
| 20260904052635 | 54 | 220 | 0.0 | 1.0 | 0.00 | 0.00 | 0.00 | 80 | 1015.3 |
| 20260904052130 | 54 | 235 | 0.0 | 0.0 | 0.00 | 0.00 | 0.00 | 80 | 1015.4 |
| 20260904051627 | 54 | 279 | 0.0 | 0.0 | 0.00 | 0.00 | 0.00 | 81 | 1015.3 |
| 20260904051121 | 54 | 262 | 0.0 | 0.0 | 0.00 | 0.00 | 0.00 | 81 | 1015.3 |
| 20260904050616 | 54 | 274 | 0.0 | 0.0 | 0.00 | 0.00 | 0.00 | 81 | 1015.5 |
| 20260904050113 | 54 | 310 | 1.0 | 1.0 | 0.00 | 0.00 | 0.00 | 82 | 1015.6 |
| 20260904045607 | 54 | 285 | 0.0 | 1.0 | 0.00 | 0.00 | 0.00 | 82 | 1015.4 |
| 20260904045102 | 55 | 320 | 2.0 | 2.0 | 0.00 | 0.00 | 0.00 | 81 | 1015.5 |
| 20260904044557 | 55 | 331 | 2.0 | 2.0 | 0.00 | 0.00 | 0.00 | 80 | 1015.8 |
| 20260904044054 | 56 | 332 | 3.0 | 3.0 | 0.00 | 0.00 | 0.00 | 80 | 1016.0 |
| 20260904043550 | 56 | 308 | 2.0 | 2.0 | 0.00 | 0.00 | 0.00 | 80 | 1016.2 |
| 20260904043046 | 56 | 333 | 1.0 | 2.0 | 0.00 | 0.00 | 0.00 | 80 | 1015.9 |
| 20260904042542 | 56 | 329 | 3.0 | 3.0 | 0.00 | 0.00 | 0.00 | 80 | 1015.9 |
| 20260904042037 | 56 | 1 | 3.0 | 3.0 | 0.00 | 0.00 | 0.00 | 81 | 1016.3 |
| 20260904041532 | 56 | 307 | 1.0 | 1.0 | 0.00 | 0.00 | 0.00 | 81 | 1016.3 |
| 20260904041029 | 56 | 277 | 0.0 | 0.0 | 0.00 | 0.00 | 0.00 | 80 | 1016.4 |
| 20260904040528 | 56 | 263 | 0.0 | 0.0 | 0.00 | 0.00 | 0.00 | 80 | 1016.4 |
| 20260904040026 | 56 | 256 | 0.0 | 0.0 | 0.00 | 0.00 | 0.00 | 80 | 1016.4 |
| 20260904035525 | 56 | 226 | 0.0 | 0.0 | 0.00 | 0.00 | 0.00 | 79 | 1016.2 |
| 20260904035025 | 56 | 310 | 0.0 | 1.0 | 0.00 | 0.00 | 0.00 | 80 | 1016.3 |
| 20260904034520 | 55 | 311 | 1.0 | 2.0 | 0.00 | 0.00 | 0.00 | 80 | 1016.4 |
| 20260904034015 | 56 | 296 | 1.0 | 1.0 | 0.00 | 0.00 | 0.00 | 79 | 1016.6 |
| 20260904033511 | 56 | 359 | 2.0 | 2.0 | 0.00 | 0.00 | 0.00 | 78 | 1016.3 |
| 20260904033009 | 56 | 1 | 1.0 | 1.0 | 0.00 | 0.00 | 0.00 | 79 | 1016.6 |
| 20260904032503 | 56 | 294 | 2.0 | 2.0 | 0.00 | 0.00 | 0.00 | 80 | 1016.7 |
| 20260904032002 | 56 | 297 | 1.0 | 1.0 | 0.00 | 0.00 | 0.00 | 80 | 1016.7 |
| 20260904031457 | 56 | 282 | 0.0 | 0.0 | 0.00 | 0.00 | 0.00 | 79 | 1016.7 |
| 20260904030953 | 57 | 87 | 1.0 | 1.0 | 0.00 | 0.00 | 0.00 | 78 | 1016.8 |
| 20260904030449 | 57 | 40 | 1.0 | 2.0 | 0.00 | 0.00 | 0.00 | 76 | 1017.2 |
| 20260904025944 | 57 | 358 | 3.0 | 3.0 | 0.00 | 0.00 | 0.00 | 76 | 1016.7 |
| 20260904025440 | 56 | 3 | 0.0 | 0.0 | 0.00 | 0.00 | 0.00 | 79 | 1016.9 |
| 20260904024940 | 56 | 289 | 1.0 | 2.0 | 0.00 | 0.00 | 0.00 | 79 | 1016.8 |
| 20260904024435 | 57 | 58 | 0.0 | 0.0 | 0.00 | 0.00 | 0.00 | 78 | 1016.9 |
| 20260904023931 | 57 | 15 | 0.0 | 0.0 | 0.00 | 0.00 | 0.00 | 77 | 1017.0 |
| 20260904023427 | 57 | 29 | 1.0 | 1.0 | 0.00 | 0.00 | 0.00 | 76 | 1016.9 |
| 20260904022926 | 57 | 313 | 1.0 | 2.0 | 0.00 | 0.00 | 0.00 | 76 | 1016.9 |
| 20260904022423 | 57 | 15 | 1.0 | 2.0 | 0.00 | 0.00 | 0.00 | 76 | 1016.7 |
| 20260904021919 | 57 | 331 | 4.0 | 5.0 | 0.00 | 0.00 | 0.00 | 76 | 1016.8 |
| 20260904021415 | 58 | 350 | 3.0 | 3.0 | 0.00 | 0.00 | 0.00 | 76 | 1016.7 |
| 20260904020909 | 58 | 346 | 4.0 | 5.0 | 0.00 | 0.00 | 0.00 | 76 | 1016.9 |
| 20260904020405 | 58 | 331 | 5.0 | 7.0 | 0.00 | 0.00 | 0.00 | 76 | 1017.0 |
| 20260904015903 | 58 | 343 | 5.0 | 6.0 | 0.00 | 0.00 | 0.00 | 76 | 1017.0 |
| 20260904015359 | 58 | 331 | 5.0 | 7.0 | 0.00 | 0.00 | 0.00 | 76 | 1016.9 |
| 20260904014857 | 58 | 343 | 5.0 | 6.0 | 0.00 | 0.00 | 0.00 | 77 | 1016.9 |
| 20260904014352 | 59 | 337 | 6.0 | 7.0 | 0.00 | 0.00 | 0.00 | 76 | 1016.9 |
| 20260904013848 | 59 | 329 | 4.0 | 5.0 | 0.00 | 0.00 | 0.00 | 75 | 1017.3 |
| 20260904013344 | 59 | 343 | 5.0 | 6.0 | 0.00 | 0.00 | 0.00 | 75 | 1017.2 |
| 20260904012840 | 60 | 9 | 6.0 | 7.0 | 0.00 | 0.00 | 0.00 | 74 | 1017.5 |
| 20260904012334 | 60 | 358 | 7.0 | 8.0 | 0.00 | 0.00 | 0.00 | 74 | 1017.3 |
| 20260904011833 | 61 | 329 | 7.0 | 7.0 | 0.00 | 0.00 | 0.00 | 73 | 1017.6 |
| 20260904011329 | 61 | 328 | 8.0 | 10.0 | 0.00 | 0.00 | 0.00 | 73 | 1017.5 |
| 20260904010824 | 61 | 314 | 10.0 | 11.0 | 0.00 | 0.00 | 0.00 | 73 | 1017.5 |
| 20260904010321 | 62 | 343 | 7.0 | 7.0 | 0.00 | 0.00 | 0.00 | 72 | 1017.7 |
| 20260904005821 | 63 | 339 | 8.0 | 9.0 | 0.00 | 0.00 | 0.00 | 71 | 1017.6 |
| 20260904005317 | 63 | 332 | 7.0 | 8.0 | 0.00 | 0.00 | 0.00 | 71 | 1017.5 |
| 20260904004811 | 63 | 352 | 7.0 | 9.0 | 0.00 | 0.00 | 0.00 | 69 | 1017.7 |
| 20260904004307 | 64 | 14 | 8.0 | 10.0 | 0.00 | 0.00 | 0.00 | 68 | 1017.7 |
| 20260904003802 | 64 | 337 | 8.0 | 9.0 | 0.00 | 0.00 | 0.00 | 68 | 1017.9 |
| 20260904003259 | 63 | 326 | 6.0 | 8.0 | 0.00 | 0.00 | 0.00 | 68 | 1017.8 |
| 20260904002753 | 63 | 27 | 7.0 | 8.0 | 0.00 | 0.00 | 0.00 | 68 | 1017.8 |
| 20260904002250 | 63 | 3 | 4.0 | 5.0 | 0.00 | 0.00 | 0.00 | 67 | 1017.8 |
| 20260904001749 | 64 | 39 | 8.0 | 9.0 | 0.00 | 0.00 | 0.00 | 69 | 1017.9 |
| 20260904001244 | 63 | 356 | 9.0 | 11.0 | 0.00 | 0.00 | 0.00 | 70 | 1018.0 |
| 20260904000739 | 62 | 17 | 5.0 | 6.0 | 0.00 | 0.00 | 0.00 | 71 | 1018.0 |
| 20260904000234 | 62 | 359 | 5.0 | 6.0 | 0.00 | 0.00 | 0.00 | 72 | 1018.0 |
| 20260903235734 | 62 | 359 | 6.0 | 8.0 | 0.00 | 0.00 | 0.00 | 71 | 1018.1 |
| 20260903235230 | 62 | 338 | 6.0 | 9.0 | 0.00 | 0.00 | 0.00 | 71 | 1017.9 |
| 20260903234729 | 62 | 332 | 3.0 | 7.0 | 0.00 | 0.00 | 0.00 | 72 | 1018.4 |
| 20260903234226 | 62 | 327 | 4.0 | 6.0 | 0.00 | 0.00 | 0.00 | 71 | 1018.4 |
| 20260903233721 | 62 | 16 | 4.0 | 6.0 | 0.00 | 0.00 | 0.00 | 71 | 1018.4 |
| 20260903233217 | 63 | 18 | 4.0 | 6.0 | 0.00 | 0.00 | 0.00 | 72 | 1018.4 |
| 20260903232716 | 62 | 333 | 7.0 | 8.0 | 0.00 | 0.00 | 0.00 | 73 | 1018.5 |
| 20260903232212 | 62 | 337 | 8.0 | 9.0 | 0.00 | 0.00 | 0.00 | 74 | 1018.5 |
| 20260903231711 | 63 | 333 | 6.0 | 8.0 | 0.00 | 0.00 | 0.00 | 72 | 1018.7 |
| 20260903231206 | 63 | 358 | 6.0 | 7.0 | 0.00 | 0.00 | 0.00 | 75 | 1018.5 |
| 20260903230702 | 62 | 341 | 7.0 | 9.0 | 0.00 | 0.00 | 0.00 | 75 | 1018.7 |
| 20260903230202 | 61 | 334 | 4.0 | 5.0 | 0.00 | 0.00 | 0.00 | 78 | 1018.7 |
| 20260903225658 | 60 | 304 | 1.0 | 1.0 | 0.00 | 0.00 | 0.00 | 79 | 1019.2 |
| 20260903225154 | 61 | 281 | 1.0 | 2.0 | 0.00 | 0.00 | 0.00 | 80 | 1019.4 |
| 20260903224650 | 61 | 295 | 2.0 | 2.0 | 0.00 | 0.00 | 0.00 | 77 | 1019.1 |
| 20260903224147 | 63 | 346 | 5.0 | 6.0 | 0.00 | 0.00 | 0.00 | 73 | 1018.9 |
| 20260903223641 | 62 | 328 | 2.0 | 2.0 | 0.00 | 0.00 | 0.00 | 70 | 1018.8 |
| 20260903223140 | 62 | 310 | 1.0 | 2.0 | 0.00 | 0.00 | 0.00 | 71 | 1019.0 |
| 20260903222635 | 62 | 342 | 3.0 | 5.0 | 0.00 | 0.00 | 0.00 | 72 | 1018.6 |
| 20260903222133 | 62 | 356 | 8.0 | 10.0 | 0.00 | 0.00 | 0.00 | 70 | 1018.5 |
| 20260903221629 | 63 | 356 | 6.0 | 8.0 | 0.00 | 0.00 | 0.00 | 70 | 1018.3 |
| 20260903221127 | 64 | 7 | 2.0 | 3.0 | 0.00 | 0.00 | 0.00 | 70 | 1018.4 |
| 20260903220626 | 64 | 352 | 8.0 | 10.0 | 0.00 | 0.00 | 0.00 | 69 | 1018.4 |
| 20260903220126 | 63 | 303 | 6.0 | 8.0 | 0.00 | 0.00 | 0.00 | 70 | 1018.5 |
| 20260903215625 | 63 | 6 | 7.0 | 9.0 | 0.00 | 0.00 | 0.00 | 70 | 1018.3 |
| 20260903215120 | 63 | 343 | 6.0 | 8.0 | 0.00 | 0.00 | 0.00 | 70 | 1018.7 |
| 20260903214619 | 63 | 340 | 10.0 | 13.0 | 0.00 | 0.00 | 0.00 | 66 | 1018.4 |
| 20260903214114 | 65 | 337 | 11.0 | 11.0 | 0.00 | 0.00 | 0.00 | 64 | 1018.3 |
| 20260903213610 | 66 | 4 | 6.0 | 8.0 | 0.00 | 0.00 | 0.00 | 61 | 1018.3 |
| 20260903213105 | 65 | 331 | 6.0 | 8.0 | 0.00 | 0.00 | 0.00 | 58 | 1018.4 |
| 20260903212601 | 66 | 341 | 6.0 | 8.0 | 0.00 | 0.00 | 0.00 | 60 | 1018.0 |
| 20260903212056 | 66 | 329 | 6.0 | 8.0 | 0.00 | 0.00 | 0.00 | 60 | 1018.0 |
| 20260903211551 | 66 | 341 | 7.0 | 8.0 | 0.00 | 0.00 | 0.00 | 61 | 1017.7 |
| 20260903211048 | 66 | 350 | 9.0 | 9.0 | 0.00 | 0.00 | 0.00 | 60 | 1018.1 |
| 20260903210542 | 66 | 341 | 5.0 | 7.0 | 0.00 | 0.00 | 0.00 | 56 | 1018.3 |
| 20260903210039 | 68 | 44 | 5.0 | 6.0 | 0.00 | 0.00 | 0.00 | 55 | 1018.1 |
| 20260903205537 | 67 | 309 | 3.0 | 3.0 | 0.00 | 0.00 | 0.00 | 55 | 1018.4 |
| 20260903205032 | 65 | 331 | 4.0 | 6.0 | 0.00 | 0.00 | 0.00 | 62 | 1018.4 |
| 20260903204528 | 65 | 339 | 3.0 | 3.0 | 0.00 | 0.00 | 0.00 | 62 | 1018.4 |
| 20260903204023 | 65 | 304 | 5.0 | 7.0 | 0.00 | 0.00 | 0.00 | 62 | 1018.4 |
| 20260903203519 | 64 | 299 | 3.0 | 5.0 | 0.00 | 0.00 | 0.00 | 63 | 1018.5 |
| 20260903203018 | 65 | 344 | 3.0 | 3.0 | 0.00 | 0.00 | 0.00 | 62 | 1018.5 |
| 20260903202514 | 65 | 296 | 2.0 | 2.0 | 0.00 | 0.00 | 0.00 | 58 | 1018.5 |
| 20260903202009 | 65 | 316 | 3.0 | 5.0 | 0.00 | 0.00 | 0.00 | 57 | 1018.4 |
| 20260903201504 | 65 | 309 | 3.0 | 5.0 | 0.00 | 0.00 | 0.00 | 58 | 1018.5 |
| 20260903201003 | 66 | 301 | 2.0 | 5.0 | 0.00 | 0.00 | 0.00 | 59 | 1018.5 |
| 20260903200458 | 66 | 331 | 5.0 | 7.0 | 0.00 | 0.00 | 0.00 | 58 | 1018.6 |
| 20260903195953 | 67 | 27 | 3.0 | 3.0 | 0.00 | 0.00 | 0.00 | 54 | 1018.4 |
| 20260903195449 | 66 | 265 | 0.0 | 1.0 | 0.00 | 0.00 | 0.00 | 56 | 1018.3 |
| 20260903194944 | 66 | 283 | 3.0 | 3.0 | 0.00 | 0.00 | 0.00 | 58 | 1018.6 |
| 20260903194439 | 65 | 286 | 3.0 | 5.0 | 0.00 | 0.00 | 0.00 | 57 | 1018.8 |
| 20260903193934 | 65 | 325 | 5.0 | 6.0 | 0.00 | 0.00 | 0.00 | 60 | 1018.8 |
| 20260903193431 | 62 | 325 | 3.0 | 3.0 | 0.00 | 0.00 | 0.00 | 66 | 1018.9 |
| 20260903192925 | 63 | 327 | 5.0 | 6.0 | 0.00 | 0.00 | 0.00 | 65 | 1018.9 |
| 20260903192422 | 62 | 272 | 1.0 | 1.0 | 0.00 | 0.00 | 0.00 | 66 | 1019.0 |
| 20260903191918 | 64 | 319 | 2.0 | 2.0 | 0.00 | 0.00 | 0.00 | 65 | 1019.0 |
| 20260903191414 | 64 | 66 | 1.0 | 1.0 | 0.00 | 0.00 | 0.00 | 64 | 1019.0 |
| 20260903190913 | 63 | 217 | 1.0 | 1.0 | 0.00 | 0.00 | 0.00 | 64 | 1019.0 |
| 20260903190408 | 63 | 306 | 1.0 | 2.0 | 0.00 | 0.00 | 0.00 | 65 | 1019.1 |
| 20260903185907 | 62 | 1 | 3.0 | 3.0 | 0.00 | 0.00 | 0.00 | 68 | 1019.0 |
| 20260903185403 | 63 | 325 | 5.0 | 6.0 | 0.00 | 0.00 | 0.00 | 68 | 1018.9 |
| 20260903184858 | 63 | 328 | 1.0 | 3.0 | 0.00 | 0.00 | 0.00 | 67 | 1019.0 |
| 20260903184355 | 63 | 334 | 5.0 | 6.0 | 0.00 | 0.00 | 0.00 | 68 | 1019.0 |
| 20260903183854 | 62 | 311 | 5.0 | 7.0 | 0.00 | 0.00 | 0.00 | 68 | 1019.1 |
| 20260903183349 | 62 | 351 | 1.0 | 2.0 | 0.00 | 0.00 | 0.00 | 66 | 1019.2 |
| 20260903182849 | 62 | 344 | 3.0 | 5.0 | 0.00 | 0.00 | 0.00 | 68 | 1019.2 |
| 20260903182348 | 63 | 291 | 3.0 | 3.0 | 0.00 | 0.00 | 0.00 | 69 | 1019.5 |
| 20260903181843 | 62 | 308 | 1.0 | 1.0 | 0.00 | 0.00 | 0.00 | 73 | 1019.5 |
| 20260903181338 | 62 | 328 | 6.0 | 7.0 | 0.00 | 0.00 | 0.00 | 73 | 1019.7 |
| 20260903180837 | 61 | 338 | 5.0 | 7.0 | 0.00 | 0.00 | 0.00 | 74 | 1019.5 |
| 20260903180332 | 60 | 305 | 2.0 | 2.0 | 0.00 | 0.00 | 0.00 | 78 | 1019.7 |
| 20260903175831 | 60 | 222 | 0.0 | 0.0 | 0.00 | 0.00 | 0.00 | 78 | 1019.9 |
| 20260903175331 | 59 | 188 | 1.0 | 2.0 | 0.00 | 0.00 | 0.00 | 78 | 1019.9 |
| 20260903174826 | 59 | 176 | 2.0 | 2.0 | 0.00 | 0.00 | 0.00 | 79 | 1020.1 |
| 20260903174321 | 58 | 174 | 4.0 | 5.0 | 0.00 | 0.00 | 0.00 | 80 | 1019.9 |
| 20260903173820 | 59 | 162 | 4.0 | 5.0 | 0.00 | 0.00 | 0.00 | 79 | 1019.9 |
| 20260903173310 | 59 | 231 | 0.0 | 1.0 | 0.00 | 0.00 | 0.00 | 79 | 1019.7 |
| 20260903172806 | 59 | 220 | 0.0 | 0.0 | 0.00 | 0.00 | 0.00 | 79 | 1019.8 |
| 20260903172301 | 59 | 185 | 1.0 | 1.0 | 0.00 | 0.00 | 0.00 | 79 | 1019.8 |
| 20260903171756 | 58 | 246 | 0.0 | 0.0 | 0.00 | 0.00 | 0.00 | 80 | 1019.5 |
| 20260903171251 | 58 | 257 | 0.0 | 0.0 | 0.00 | 0.00 | 0.00 | 81 | 1019.8 |
| 20260903170749 | 58 | 201 | 1.0 | 1.0 | 0.00 | 0.00 | 0.00 | 81 | 1019.8 |
| 20260903170245 | 57 | 233 | 0.0 | 0.0 | 0.00 | 0.00 | 0.00 | 81 | 1019.6 |
| 20260903165743 | 57 | 236 | 0.0 | 0.0 | 0.00 | 0.00 | 0.00 | 81 | 1019.7 |
| 20260903165239 | 57 | 183 | 0.0 | 1.0 | 0.00 | 0.00 | 0.00 | 82 | 1019.9 |
| 20260903164733 | 56 | 272 | 0.0 | 0.0 | 0.00 | 0.00 | 0.00 | 82 | 1019.5 |
| 20260903164229 | 56 | 264 | 0.0 | 1.0 | 0.00 | 0.00 | 0.00 | 84 | 1019.8 |
| 20260903163728 | 56 | 328 | 2.0 | 2.0 | 0.00 | 0.00 | 0.00 | 85 | 1019.7 |
| 20260903163225 | 55 | 329 | 3.0 | 3.0 | 0.00 | 0.00 | 0.00 | 86 | 1019.5 |
| 20260903162721 | 55 | 277 | 0.0 | 0.0 | 0.00 | 0.00 | 0.00 | 87 | 1019.6 |
| 20260903162217 | 55 | 259 | 0.0 | 0.0 | 0.00 | 0.00 | 0.00 | 88 | 1019.5 |
| 20260903161713 | 54 | 261 | 0.0 | 1.0 | 0.00 | 0.00 | 0.00 | 89 | 1019.6 |
| 20260903161208 | 54 | 290 | 1.0 | 1.0 | 0.00 | 0.00 | 0.00 | 90 | 1019.7 |
| 20260903160703 | 53 | 294 | 1.0 | 1.0 | 0.00 | 0.00 | 0.00 | 92 | 1019.4 |
| 20260903160157 | 53 | 330 | 4.0 | 5.0 | 0.00 | 0.00 | 0.00 | 93 | 1019.2 |
| 20260903155656 | 53 | 286 | 0.0 | 0.0 | 0.00 | 0.00 | 0.00 | 94 | 1019.4 |
| 20260903155156 | 52 | 253 | 0.0 | 0.0 | 0.00 | 0.00 | 0.00 | 94 | 1019.2 |
| 20260903154652 | 52 | 289 | 0.0 | 1.0 | 0.00 | 0.00 | 0.00 | 95 | 1019.0 |
| 20260903154148 | 52 | 259 | 0.0 | 0.0 | 0.00 | 0.00 | 0.00 | 95 | 1019.4 |
| 20260903153643 | 52 | 234 | 0.0 | 0.0 | 0.00 | 0.00 | 0.00 | 95 | 1019.5 |
| 20260903153139 | 51 | 288 | 1.0 | 1.0 | 0.00 | 0.00 | 0.00 | 95 | 1019.4 |
| 20260903152635 | 51 | 249 | 0.0 | 0.0 | 0.00 | 0.00 | 0.00 | 95 | 1019.5 |
| 20260903152131 | 51 | 226 | 0.0 | 1.0 | 0.00 | 0.00 | 0.00 | 95 | 1019.5 |
| 20260903151631 | 50 | 238 | 0.0 | 0.0 | 0.00 | 0.00 | 0.00 | 96 | 1019.2 |
| 20260903151125 | 50 | 303 | 1.0 | 1.0 | 0.00 | 0.00 | 0.00 | 95 | 1019.4 |
| 20260903150620 | 50 | 260 | 0.0 | 0.0 | 0.00 | 0.00 | 0.00 | 95 | 1019.2 |
| 20260903150115 | 50 | 260 | 0.0 | 0.0 | 0.00 | 0.00 | 0.00 | 95 | 1019.4 |
| 20260903145614 | 49 | 269 | 0.0 | 0.0 | 0.00 | 0.00 | 0.00 | 95 | 1019.5 |
| 20260903145110 | 49 | 281 | 0.0 | 0.0 | 0.00 | 0.00 | 0.00 | 96 | 1019.4 |
| 20260903144609 | 49 | 282 | 0.0 | 1.0 | 0.00 | 0.00 | 0.00 | 95 | 1019.4 |